TRA42T UGTB-EHAM

Flight info

Callsign TRA42T
Flight time 4h 36m
Altitude 34000
Route ZAGOT DCT BARUS DCT ROLIN UN644 INB/N0448F360 UL746 ODERO DCT LUGEB DCT BADOR DCT PITOK DCT MAKAL DCT LALUK DCT NORKU
Aircraft A21N/M-SDE2E3FGHIRWXY/LB1

Departure

Time 2026-04-30 18:02
Airport Tbilisi International Airport (UGTB)

Arrival

Time 2026-04-30 22:38
Airport Amsterdam Airport Schiphol (EHAM)
Time Latitude Longitude Altitude Speed Heading
2026-04-30 17:39 41.66817 44.96431 1536 ft 0 kts 44°
2026-04-30 17:48 41.66811 44.96422 1537 ft 1 kts 44°
2026-04-30 17:49 41.66788 44.96392 1539 ft 1 kts 44°
2026-04-30 17:50 41.66758 44.96382 1537 ft 1 kts 352°
2026-04-30 17:51 41.66739 44.96390 1537 ft 0 kts 315°
2026-04-30 17:53 41.66767 44.96348 1543 ft 11 kts 312°
2026-04-30 17:54 41.66950 44.96057 1553 ft 15 kts 303°
2026-04-30 17:55 41.67166 44.95765 1560 ft 13 kts 332°
2026-04-30 17:56 41.67616 44.95113 1574 ft 26 kts 313°
2026-04-30 17:57 41.67587 44.94646 1580 ft 16 kts 259°
2026-04-30 17:58 41.67568 44.94552 1581 ft 0 kts 252°
2026-04-30 17:59 41.67451 44.94434 1575 ft 0 kts 137°
2026-04-30 18:00 41.67381 44.94522 1572 ft 43 kts 136°
2026-04-30 18:01 41.66361 44.95818 1544 ft 160 kts 135°
2026-04-30 18:02 41.63856 44.99009 3117 ft 164 kts 138°
2026-04-30 18:02 41.60787 45.02658 3913 ft 238 kts 137°
2026-04-30 18:03 41.56144 45.05279 5667 ft 269 kts 201°
2026-04-30 18:04 41.53387 44.99112 8125 ft 274 kts 264°
2026-04-30 18:05 41.52624 44.88769 10791 ft 301 kts 264°
2026-04-30 18:06 41.51591 44.76667 12963 ft 338 kts 263°
2026-04-30 18:07 41.50486 44.64074 15750 ft 347 kts 263°
2026-04-30 18:08 41.49624 44.54364 17648 ft 356 kts 263°
2026-04-30 18:09 41.48433 44.41095 19783 ft 367 kts 263°
2026-04-30 18:10 41.50637 44.28224 21645 ft 393 kts 317°
2026-04-30 18:11 41.59407 44.19356 23525 ft 397 kts 301°
2026-04-30 18:11 41.61802 44.08984 24691 ft 393 kts 275°
2026-04-30 18:12 41.62450 43.97999 25770 ft 397 kts 272°
2026-04-30 18:13 41.62861 43.90601 26476 ft 400 kts 273°
2026-04-30 18:13 41.63493 43.80703 27426 ft 402 kts 274°
2026-04-30 18:14 41.64069 43.72002 28120 ft 406 kts 274°
2026-04-30 18:15 41.64803 43.60707 29211 ft 404 kts 274°
2026-04-30 18:15 41.65515 43.49536 30359 ft 399 kts 274°
2026-04-30 18:16 41.65977 43.42199 30942 ft 397 kts 274°
2026-04-30 18:16 41.66433 43.34856 31503 ft 396 kts 274°
2026-04-30 18:17 41.66659 43.31194 31769 ft 395 kts 274°
2026-04-30 18:17 41.66884 43.27532 32013 ft 394 kts 274°
2026-04-30 18:17 41.67329 43.20242 32521 ft 393 kts 274°
2026-04-30 18:18 41.67549 43.16608 32760 ft 392 kts 274°
2026-04-30 18:18 41.67767 43.12969 33009 ft 391 kts 274°
2026-04-30 18:18 41.67984 43.09342 33198 ft 391 kts 274°
2026-04-30 18:18 41.68200 43.05702 33368 ft 391 kts 274°
2026-04-30 18:19 41.68414 43.02078 33607 ft 390 kts 273°
2026-04-30 18:19 41.68626 42.98472 33844 ft 389 kts 273°
2026-04-30 18:19 41.68838 42.94867 34034 ft 388 kts 273°
2026-04-30 18:20 41.69257 42.87632 34102 ft 389 kts 273°
2026-04-30 18:20 41.69669 42.80466 34093 ft 389 kts 273°
2026-04-30 18:21 41.70079 42.73248 34102 ft 389 kts 273°
2026-04-30 18:21 41.70484 42.66039 34103 ft 388 kts 273°
2026-04-30 18:22 41.70884 42.58839 34100 ft 387 kts 273°
2026-04-30 18:22 41.71473 42.48051 34105 ft 388 kts 273°
2026-04-30 18:23 41.71860 42.40871 34102 ft 389 kts 273°
2026-04-30 18:23 41.72246 42.33657 34103 ft 388 kts 273°
2026-04-30 18:24 41.72816 42.22832 34098 ft 388 kts 273°
2026-04-30 18:25 41.73189 42.15628 34091 ft 388 kts 272°
2026-04-30 18:25 41.73737 42.04851 34106 ft 388 kts 272°
2026-04-30 18:26 41.74276 41.94026 34113 ft 388 kts 272°
2026-04-30 18:27 41.74810 41.83207 34120 ft 388 kts 272°
2026-04-30 18:28 41.75332 41.72384 34123 ft 388 kts 272°
2026-04-30 18:28 41.75840 41.61585 34126 ft 387 kts 272°
2026-04-30 18:29 41.76504 41.47174 34124 ft 387 kts 272°
2026-04-30 18:30 41.77148 41.32816 34121 ft 387 kts 272°
2026-04-30 18:31 41.77621 41.21996 34110 ft 388 kts 272°
2026-04-30 18:32 41.78084 41.11178 34105 ft 388 kts 272°
2026-04-30 18:33 41.78537 41.00349 34107 ft 388 kts 272°
2026-04-30 18:33 41.78979 40.89523 34103 ft 387 kts 272°
2026-04-30 18:34 41.79412 40.78711 34101 ft 387 kts 272°
2026-04-30 18:35 41.79696 40.71501 34106 ft 388 kts 271°
2026-04-30 18:35 41.79979 40.64321 34105 ft 388 kts 272°
2026-04-30 18:36 41.80401 40.54668 34105 ft 388 kts 272°
2026-04-30 18:37 41.80877 40.43838 34109 ft 388 kts 272°
2026-04-30 18:37 41.81186 40.36622 34105 ft 388 kts 272°
2026-04-30 18:38 41.81489 40.29395 34102 ft 388 kts 272°
2026-04-30 18:38 41.81785 40.22221 34096 ft 388 kts 272°
2026-04-30 18:39 41.82079 40.14993 34105 ft 388 kts 272°
2026-04-30 18:39 41.82368 40.07756 34106 ft 388 kts 272°
2026-04-30 18:40 41.82652 40.00526 34105 ft 388 kts 272°
2026-04-30 18:40 41.82931 39.93304 34108 ft 388 kts 271°
2026-04-30 18:41 41.83205 39.86080 34109 ft 388 kts 271°
2026-04-30 18:41 41.83477 39.78854 34109 ft 388 kts 271°
2026-04-30 18:42 41.83743 39.71612 34266 ft 388 kts 271°
2026-04-30 18:42 41.84002 39.64420 34546 ft 388 kts 271°
2026-04-30 18:42 41.84131 39.60796 34643 ft 389 kts 271°
2026-04-30 18:45 41.85368 39.24358 35594 ft 394 kts 271°
2026-04-30 18:45 41.85487 39.20687 35687 ft 394 kts 271°
2026-04-30 18:46 41.85721 39.13311 35835 ft 396 kts 271°
2026-04-30 18:46 41.85951 39.05932 35975 ft 397 kts 271°
2026-04-30 18:47 41.86177 38.98519 36086 ft 399 kts 271°
2026-04-30 18:47 41.86399 38.91066 36103 ft 400 kts 271°
2026-04-30 18:48 41.86617 38.83616 36109 ft 399 kts 271°
2026-04-30 18:48 41.86829 38.76219 36102 ft 399 kts 271°
2026-04-30 18:49 41.87037 38.68771 36105 ft 399 kts 271°
2026-04-30 18:49 41.87240 38.61323 36105 ft 399 kts 271°
2026-04-30 18:50 41.87438 38.53885 36099 ft 399 kts 270°
2026-04-30 18:50 41.87631 38.46432 36102 ft 399 kts 270°
2026-04-30 18:51 41.87820 38.38977 36105 ft 399 kts 270°
2026-04-30 18:51 41.88004 38.31534 36105 ft 399 kts 270°
2026-04-30 18:52 41.88183 38.24080 36102 ft 399 kts 270°
2026-04-30 18:52 41.88357 38.16631 36102 ft 399 kts 270°
2026-04-30 18:53 41.88526 38.09185 36102 ft 399 kts 270°
2026-04-30 18:53 41.88690 38.01739 36102 ft 399 kts 270°
2026-04-30 18:54 41.88850 37.94295 36102 ft 399 kts 270°
2026-04-30 18:54 41.89004 37.86856 36090 ft 399 kts 270°
2026-04-30 18:55 41.89154 37.79404 36102 ft 400 kts 270°
2026-04-30 18:55 41.89371 37.68206 36105 ft 400 kts 270°
2026-04-30 18:56 41.89577 37.57011 36110 ft 400 kts 270°
2026-04-30 18:57 41.89770 37.45878 36102 ft 398 kts 270°
2026-04-30 18:57 41.89893 37.38443 36108 ft 398 kts 270°
2026-04-30 18:58 41.90069 37.27280 36100 ft 398 kts 270°
2026-04-30 18:59 41.90234 37.16157 36130 ft 399 kts 270°
2026-04-30 19:00 41.90548 37.01352 36109 ft 396 kts 272°
2026-04-30 19:01 41.91593 36.86606 36106 ft 397 kts 274°
2026-04-30 19:02 41.92366 36.75544 36106 ft 396 kts 273°
2026-04-30 19:03 41.93336 36.60818 36106 ft 395 kts 273°
2026-04-30 19:04 41.94285 36.46127 36101 ft 396 kts 273°
2026-04-30 19:05 41.95219 36.31389 36107 ft 396 kts 273°
2026-04-30 19:06 41.96134 36.16647 36104 ft 396 kts 273°
2026-04-30 19:06 41.96808 36.05589 36103 ft 396 kts 273°
2026-04-30 19:07 41.97471 35.94543 36112 ft 395 kts 273°
2026-04-30 19:08 41.98336 35.79819 36104 ft 396 kts 272°
2026-04-30 19:09 41.98611 35.75080 36106 ft 396 kts 272°
2026-04-30 19:09 41.99035 35.67704 36106 ft 396 kts 272°
2026-04-30 19:10 41.99868 35.52960 36095 ft 395 kts 272°
2026-04-30 19:11 42.00480 35.41903 36104 ft 397 kts 272°
2026-04-30 19:12 42.00885 35.34452 36105 ft 402 kts 272°
2026-04-30 19:12 42.01291 35.26911 36097 ft 407 kts 272°
2026-04-30 19:13 42.02096 35.11716 36100 ft 407 kts 272°
2026-04-30 19:14 42.02124 35.04117 36100 ft 406 kts 266°
2026-04-30 19:14 42.01819 34.96540 36096 ft 406 kts 265°
2026-04-30 19:15 42.01448 34.88971 36090 ft 406 kts 265°
2026-04-30 19:15 42.00884 34.77666 36110 ft 406 kts 265°
2026-04-30 19:16 42.00510 34.70111 36083 ft 404 kts 265°
2026-04-30 19:17 41.99966 34.59235 36080 ft 405 kts 265°
2026-04-30 19:17 41.99450 34.49100 36080 ft 406 kts 265°
2026-04-30 19:18 41.98862 34.37757 36071 ft 405 kts 265°
2026-04-30 19:19 41.98463 34.30202 36073 ft 405 kts 265°
2026-04-30 19:19 41.97858 34.18906 36071 ft 403 kts 265°
2026-04-30 19:20 41.97453 34.11440 36063 ft 403 kts 265°
2026-04-30 19:21 41.96830 34.00167 36064 ft 403 kts 265°
2026-04-30 19:22 41.95983 33.85136 36063 ft 403 kts 265°
2026-04-30 19:23 41.96624 33.62769 36057 ft 404 kts 281°
2026-04-30 19:24 41.98746 33.51781 36046 ft 405 kts 282°
2026-04-30 19:25 42.02290 33.33485 36043 ft 405 kts 281°
2026-04-30 19:26 42.05070 33.18811 36045 ft 405 kts 281°
2026-04-30 19:27 42.07147 33.07809 36037 ft 404 kts 282°
2026-04-30 19:28 42.09364 32.96861 36043 ft 404 kts 282°
2026-04-30 19:29 42.12364 32.82259 36052 ft 404 kts 282°
2026-04-30 19:30 42.15311 32.67703 36044 ft 402 kts 282°
2026-04-30 19:31 42.18231 32.53156 36046 ft 402 kts 282°
2026-04-30 19:31 42.20408 32.42233 36048 ft 402 kts 282°
2026-04-30 19:32 42.21853 32.34947 36048 ft 402 kts 282°
2026-04-30 19:32 42.23293 32.27665 36048 ft 402 kts 282°
2026-04-30 19:33 42.24728 32.20375 36048 ft 402 kts 282°
2026-04-30 19:33 42.26142 32.13148 36054 ft 400 kts 282°
2026-04-30 19:34 42.27559 32.05899 36062 ft 399 kts 282°
2026-04-30 19:35 42.29680 31.95031 36059 ft 399 kts 282°
2026-04-30 19:35 42.31089 31.87779 36067 ft 399 kts 282°
2026-04-30 19:36 42.32492 31.80532 36067 ft 398 kts 281°
2026-04-30 19:36 42.34575 31.69717 36065 ft 398 kts 282°
2026-04-30 19:37 42.35963 31.62476 36071 ft 398 kts 281°
2026-04-30 19:37 42.37347 31.55230 36075 ft 398 kts 281°
2026-04-30 19:38 42.38729 31.47973 36080 ft 397 kts 281°
2026-04-30 19:38 42.40092 31.40783 36080 ft 397 kts 281°
2026-04-30 19:39 42.41459 31.33548 36089 ft 397 kts 281°
2026-04-30 19:39 42.42824 31.26295 36092 ft 397 kts 281°
2026-04-30 19:40 42.44181 31.19054 36103 ft 397 kts 281°
2026-04-30 19:40 42.45536 31.11802 36099 ft 397 kts 281°
2026-04-30 19:41 42.46885 31.04541 36096 ft 397 kts 280°
2026-04-30 19:41 42.48229 30.97273 36107 ft 397 kts 280°
2026-04-30 19:42 42.49568 30.90011 36102 ft 397 kts 280°
2026-04-30 19:42 42.50895 30.82785 36349 ft 396 kts 280°
2026-04-30 19:43 42.51557 30.79167 36469 ft 396 kts 280°
2026-04-30 19:43 42.52220 30.75542 36537 ft 396 kts 280°
2026-04-30 19:44 42.54202 30.64645 36802 ft 397 kts 280°
2026-04-30 19:44 42.55520 30.57373 36963 ft 397 kts 280°
2026-04-30 19:44 42.56178 30.53728 37065 ft 398 kts 280°
2026-04-30 19:45 42.56836 30.50077 37054 ft 400 kts 280°
2026-04-30 19:45 42.58155 30.42733 37178 ft 401 kts 280°
2026-04-30 19:46 42.59474 30.35363 37292 ft 402 kts 280°
2026-04-30 19:46 42.61161 30.28107 37403 ft 408 kts 290°
2026-04-30 19:46 42.62535 30.24718 37507 ft 413 kts 298°
2026-04-30 19:47 42.64268 30.21584 37585 ft 417 kts 303°
2026-04-30 19:47 42.68084 30.15555 37581 ft 422 kts 306°
2026-04-30 19:48 42.72013 30.09652 37672 ft 424 kts 306°
2026-04-30 19:48 42.75962 30.03690 37757 ft 425 kts 306°
2026-04-30 19:49 42.79924 29.97638 37852 ft 425 kts 306°
2026-04-30 19:49 42.83840 29.91619 37989 ft 425 kts 306°
2026-04-30 19:49 42.85800 29.88598 37996 ft 426 kts 306°
2026-04-30 19:50 42.89705 29.82572 38061 ft 427 kts 306°
2026-04-30 19:50 42.93647 29.76478 38124 ft 429 kts 306°
2026-04-30 19:51 42.97598 29.70358 38173 ft 430 kts 306°
2026-04-30 19:51 43.01558 29.64213 38173 ft 431 kts 306°
2026-04-30 19:52 43.05514 29.58064 38173 ft 431 kts 306°
2026-04-30 19:52 43.09465 29.51907 38178 ft 430 kts 306°
2026-04-30 19:53 43.13412 29.45742 38185 ft 430 kts 306°
2026-04-30 19:53 43.17350 29.39578 38184 ft 430 kts 306°
2026-04-30 19:54 43.21290 29.33398 38193 ft 430 kts 306°
2026-04-30 19:54 43.25226 29.27210 38218 ft 431 kts 307°
2026-04-30 19:55 43.29163 29.21007 38204 ft 431 kts 307°
2026-04-30 19:55 43.33109 29.14777 38204 ft 432 kts 307°
2026-04-30 19:56 43.37052 29.08540 38208 ft 432 kts 307°
2026-04-30 19:56 43.40988 29.02300 38215 ft 432 kts 307°
2026-04-30 19:57 43.44914 28.96063 38217 ft 430 kts 307°
2026-04-30 19:57 43.48801 28.89875 38216 ft 429 kts 307°
2026-04-30 19:58 43.52703 28.83647 38223 ft 429 kts 307°
2026-04-30 19:58 43.56603 28.77408 38230 ft 429 kts 307°
2026-04-30 19:59 43.60502 28.71160 38227 ft 429 kts 306°
2026-04-30 20:00 43.65681 28.62838 38296 ft 429 kts 306°
2026-04-30 20:00 43.69579 28.56558 38334 ft 430 kts 306°
2026-04-30 20:01 43.76168 28.46132 37927 ft 434 kts 308°
2026-04-30 20:01 43.79609 28.41018 38032 ft 432 kts 309°
2026-04-30 20:02 43.83721 28.34933 38143 ft 433 kts 309°
2026-04-30 20:02 43.85773 28.31879 38181 ft 433 kts 308°
2026-04-30 20:03 43.91939 28.22637 38169 ft 437 kts 309°
2026-04-30 20:03 43.96054 28.16444 38230 ft 436 kts 309°
2026-04-30 20:04 44.00147 28.10271 38263 ft 437 kts 309°
2026-04-30 20:05 44.06318 28.00937 38270 ft 437 kts 309°
2026-04-30 20:05 44.12489 27.91574 38271 ft 437 kts 309°
2026-04-30 20:06 44.16600 27.85319 38278 ft 437 kts 309°
2026-04-30 20:06 44.20701 27.79064 38287 ft 437 kts 309°
2026-04-30 20:07 44.24770 27.72846 38284 ft 436 kts 309°
2026-04-30 20:08 44.30900 27.63451 38290 ft 436 kts 309°
2026-04-30 20:08 44.34981 27.57178 38300 ft 436 kts 309°
2026-04-30 20:09 44.39063 27.50889 38304 ft 437 kts 309°
2026-04-30 20:09 44.45165 27.41462 38308 ft 438 kts 309°
2026-04-30 20:10 44.51292 27.31966 38306 ft 438 kts 309°
2026-04-30 20:11 44.57415 27.22443 38308 ft 438 kts 309°
2026-04-30 20:11 44.61494 27.16082 38309 ft 438 kts 309°
2026-04-30 20:12 44.67607 27.06523 38309 ft 438 kts 309°
2026-04-30 20:13 44.71651 27.00178 38326 ft 438 kts 309°
2026-04-30 20:13 44.75717 26.93787 38314 ft 439 kts 309°
2026-04-30 20:14 44.79790 26.87369 38314 ft 439 kts 309°
2026-04-30 20:14 44.83857 26.80947 38314 ft 439 kts 309°
2026-04-30 20:15 44.87920 26.74515 38301 ft 440 kts 309°
2026-04-30 20:15 44.91985 26.68066 38317 ft 440 kts 309°
2026-04-30 20:16 44.96046 26.61608 38320 ft 439 kts 309°
2026-04-30 20:16 45.00101 26.55145 38324 ft 439 kts 309°
2026-04-30 20:17 45.04154 26.48669 38322 ft 440 kts 309°
2026-04-30 20:17 45.08183 26.42217 38324 ft 441 kts 309°
2026-04-30 20:18 45.12272 26.35655 38355 ft 442 kts 309°
2026-04-30 20:18 45.16332 26.29123 38345 ft 442 kts 309°
2026-04-30 20:19 45.20362 26.22624 38349 ft 442 kts 309°
2026-04-30 20:19 45.24422 26.16061 38351 ft 442 kts 309°
2026-04-30 20:20 45.28477 26.09492 38347 ft 442 kts 309°
2026-04-30 20:20 45.32528 26.02914 38357 ft 442 kts 309°
2026-04-30 20:21 45.36576 25.96323 38370 ft 443 kts 310°
2026-04-30 20:21 45.40635 25.89699 38371 ft 444 kts 310°
2026-04-30 20:22 45.44694 25.83062 38374 ft 445 kts 310°
2026-04-30 20:22 45.48755 25.76404 38365 ft 445 kts 310°
2026-04-30 20:23 45.52813 25.69734 38364 ft 445 kts 310°
2026-04-30 20:23 45.56862 25.63064 38367 ft 444 kts 310°
2026-04-30 20:24 45.60907 25.56384 38374 ft 444 kts 310°
2026-04-30 20:24 45.64946 25.49700 38371 ft 444 kts 310°
2026-04-30 20:25 45.70997 25.39652 38324 ft 443 kts 310°
2026-04-30 20:26 45.77020 25.29615 38367 ft 443 kts 310°
2026-04-30 20:26 45.83021 25.19580 38371 ft 445 kts 310°
2026-04-30 20:27 45.91054 25.06088 38359 ft 444 kts 310°
2026-04-30 20:28 45.99067 24.92565 38367 ft 444 kts 310°
2026-04-30 20:30 46.09044 24.75634 38365 ft 443 kts 310°
2026-04-30 20:31 46.20944 24.55302 38348 ft 443 kts 310°
2026-04-30 20:32 46.30871 24.38228 38340 ft 444 kts 310°
2026-04-30 20:33 46.36814 24.27956 38344 ft 443 kts 310°
2026-04-30 20:34 46.42720 24.17709 38344 ft 443 kts 310°
2026-04-30 20:35 46.48638 24.07402 38350 ft 443 kts 310°
2026-04-30 20:35 46.54553 23.97062 38337 ft 444 kts 310°
2026-04-30 20:36 46.58492 23.90155 38337 ft 444 kts 310°
2026-04-30 20:37 46.64367 23.79820 38333 ft 444 kts 310°
2026-04-30 20:37 46.68295 23.72888 38318 ft 444 kts 310°
2026-04-30 20:38 46.72220 23.65946 38314 ft 444 kts 310°
2026-04-30 20:38 46.76147 23.58982 38315 ft 444 kts 310°
2026-04-30 20:39 46.82028 23.48518 38327 ft 444 kts 310°
2026-04-30 20:40 46.87872 23.38081 38338 ft 445 kts 311°
2026-04-30 20:40 46.91795 23.31054 38338 ft 446 kts 310°
2026-04-30 20:41 46.97668 23.20499 38324 ft 446 kts 310°
2026-04-30 20:41 47.01580 23.13445 38330 ft 446 kts 311°
2026-04-30 20:42 47.05486 23.06382 38329 ft 446 kts 311°
2026-04-30 20:43 47.11339 22.95768 38328 ft 446 kts 310°
2026-04-30 20:43 47.15236 22.88678 38327 ft 446 kts 310°
2026-04-30 20:44 47.21076 22.78018 38327 ft 446 kts 310°
2026-04-30 20:45 47.28843 22.63776 38331 ft 448 kts 311°
2026-04-30 20:45 47.32732 22.56617 38331 ft 448 kts 311°
2026-04-30 20:46 47.40505 22.42251 38335 ft 448 kts 311°
2026-04-30 20:47 47.46334 22.31430 38339 ft 448 kts 311°
2026-04-30 20:48 47.52147 22.20592 38336 ft 448 kts 311°
2026-04-30 20:48 47.56022 22.13347 38338 ft 449 kts 311°
2026-04-30 20:49 47.59717 22.05875 38345 ft 451 kts 307°
2026-04-30 20:50 47.64292 21.95451 38347 ft 451 kts 306°
2026-04-30 20:50 47.67674 21.87682 38345 ft 451 kts 306°
2026-04-30 20:51 47.71108 21.79869 38343 ft 452 kts 306°
2026-04-30 20:51 47.76278 21.68135 38347 ft 452 kts 306°
2026-04-30 20:52 47.79717 21.60307 38348 ft 452 kts 306°
2026-04-30 20:53 47.84867 21.48534 38350 ft 453 kts 306°
2026-04-30 20:53 47.88303 21.40651 38349 ft 454 kts 306°
2026-04-30 20:54 47.93448 21.28802 38349 ft 453 kts 306°
2026-04-30 20:55 47.98574 21.16944 38349 ft 453 kts 306°
2026-04-30 20:55 48.01964 21.09075 38352 ft 453 kts 306°
2026-04-30 20:56 48.07073 20.97172 38349 ft 453 kts 306°
2026-04-30 20:57 48.12166 20.85252 38349 ft 453 kts 306°
2026-04-30 20:57 48.15560 20.77279 38350 ft 454 kts 306°
2026-04-30 20:58 48.20645 20.65294 38354 ft 454 kts 306°
2026-04-30 20:58 48.24029 20.57287 38355 ft 454 kts 306°
2026-04-30 20:59 48.29095 20.45255 38359 ft 455 kts 306°
2026-04-30 21:00 48.35889 20.29265 38361 ft 455 kts 307°
2026-04-30 21:01 48.41080 20.17322 38360 ft 454 kts 308°
2026-04-30 21:02 48.46246 20.05354 38368 ft 454 kts 307°
2026-04-30 21:02 48.49679 19.97358 38371 ft 454 kts 307°
2026-04-30 21:03 48.53103 19.89358 38374 ft 454 kts 307°
2026-04-30 21:03 48.56524 19.81339 38383 ft 454 kts 307°
2026-04-30 21:04 48.59944 19.73303 38369 ft 455 kts 307°
2026-04-30 21:04 48.65066 19.61218 38396 ft 455 kts 307°
2026-04-30 21:05 48.68476 19.53144 38394 ft 455 kts 307°
2026-04-30 21:05 48.71877 19.45065 38378 ft 455 kts 307°
2026-04-30 21:06 48.75277 19.36966 38386 ft 456 kts 307°
2026-04-30 21:06 48.78678 19.28840 38395 ft 456 kts 307°
2026-04-30 21:07 48.82073 19.20703 38400 ft 456 kts 307°
2026-04-30 21:07 48.85448 19.12590 38383 ft 459 kts 307°
2026-04-30 21:08 48.88846 19.04395 38569 ft 458 kts 307°
2026-04-30 21:08 48.92236 18.96194 38772 ft 458 kts 307°
2026-04-30 21:09 48.95611 18.88001 38967 ft 456 kts 307°
2026-04-30 21:09 48.98971 18.79823 39120 ft 455 kts 307°
2026-04-30 21:10 49.02315 18.71661 39236 ft 454 kts 307°
2026-04-30 21:10 49.05648 18.63501 39370 ft 453 kts 307°
2026-04-30 21:11 49.08965 18.55351 39498 ft 451 kts 307°
2026-04-30 21:11 49.12256 18.47242 39635 ft 448 kts 307°
2026-04-30 21:12 49.15524 18.39164 39751 ft 446 kts 307°
2026-04-30 21:12 49.18769 18.31118 39887 ft 443 kts 307°
2026-04-30 21:13 49.21981 18.23131 40017 ft 439 kts 307°
2026-04-30 21:13 49.25156 18.15201 40154 ft 435 kts 307°
2026-04-30 21:14 49.28274 18.07295 40299 ft 431 kts 307°
2026-04-30 21:14 49.31342 17.99461 40392 ft 427 kts 307°
2026-04-30 21:15 49.34389 17.91666 40411 ft 425 kts 307°
2026-04-30 21:15 49.37423 17.83892 40410 ft 424 kts 307°
2026-04-30 21:16 49.40418 17.76194 40408 ft 422 kts 307°
2026-04-30 21:16 49.43423 17.68449 40411 ft 421 kts 307°
2026-04-30 21:17 49.46403 17.60741 40411 ft 419 kts 307°
2026-04-30 21:17 49.49368 17.53050 40406 ft 416 kts 307°
2026-04-30 21:18 49.52314 17.45391 40289 ft 419 kts 307°
2026-04-30 21:18 49.53826 17.41466 39888 ft 429 kts 307°
2026-04-30 21:18 49.55357 17.37484 39658 ft 436 kts 307°
2026-04-30 21:19 49.56909 17.33436 39522 ft 440 kts 307°
2026-04-30 21:19 49.58444 17.29415 39404 ft 443 kts 307°
2026-04-30 21:19 49.61589 17.21152 39233 ft 450 kts 307°
2026-04-30 21:20 49.64781 17.12745 39051 ft 458 kts 307°
2026-04-30 21:20 49.66394 17.08489 38935 ft 461 kts 307°
2026-04-30 21:20 49.68008 17.04216 38827 ft 460 kts 307°
2026-04-30 21:21 49.69615 16.99950 38714 ft 459 kts 307°
2026-04-30 21:21 49.71215 16.95697 38602 ft 458 kts 307°
2026-04-30 21:21 49.74405 16.87203 38419 ft 455 kts 308°
2026-04-30 21:22 49.75993 16.82969 38427 ft 454 kts 308°
2026-04-30 21:23 49.82355 16.65961 38420 ft 460 kts 308°
2026-04-30 21:23 49.87168 16.53011 38384 ft 464 kts 307°
2026-04-30 21:24 49.90370 16.44344 38426 ft 462 kts 307°
2026-04-30 21:24 49.93559 16.35690 38421 ft 461 kts 307°
2026-04-30 21:25 49.98310 16.22753 38419 ft 461 kts 307°
2026-04-30 21:26 50.03064 16.09743 38430 ft 461 kts 307°
2026-04-30 21:27 50.07795 15.96722 38420 ft 460 kts 307°
2026-04-30 21:27 50.10935 15.88048 38430 ft 460 kts 307°
2026-04-30 21:28 50.15620 15.75049 38386 ft 460 kts 306°
2026-04-30 21:29 50.20301 15.61997 38425 ft 459 kts 306°
2026-04-30 21:30 50.28052 15.40236 38427 ft 459 kts 306°
2026-04-30 21:31 50.35789 15.18330 38424 ft 460 kts 306°
2026-04-30 21:32 50.40409 15.05159 38439 ft 460 kts 306°
2026-04-30 21:32 50.43483 14.96357 38440 ft 460 kts 306°
2026-04-30 21:33 50.48066 14.83178 38433 ft 460 kts 305°
2026-04-30 21:34 50.51121 14.74351 38433 ft 460 kts 305°
2026-04-30 21:34 50.55695 14.61086 38438 ft 460 kts 305°
2026-04-30 21:35 50.58732 14.52238 38436 ft 460 kts 305°
2026-04-30 21:35 50.61769 14.43358 38440 ft 460 kts 305°
2026-04-30 21:36 50.64797 14.34471 38440 ft 460 kts 305°
2026-04-30 21:37 50.70327 14.18167 38446 ft 461 kts 305°
2026-04-30 21:37 50.73333 14.09257 38440 ft 460 kts 305°
2026-04-30 21:38 50.76333 14.00334 38441 ft 460 kts 304°
2026-04-30 21:38 50.79327 13.91400 38446 ft 460 kts 304°
2026-04-30 21:39 50.81865 13.82020 38442 ft 466 kts 298°
2026-04-30 21:39 50.84183 13.72447 38440 ft 467 kts 297°
2026-04-30 21:40 50.86482 13.62830 38444 ft 467 kts 297°
2026-04-30 21:40 50.88771 13.53199 38443 ft 467 kts 297°
2026-04-30 21:41 50.91049 13.43571 38443 ft 467 kts 297°
2026-04-30 21:41 50.93305 13.33986 38444 ft 467 kts 297°
2026-04-30 21:42 50.95568 13.24331 38442 ft 467 kts 296°
2026-04-30 21:42 50.97820 13.14683 38447 ft 466 kts 296°
2026-04-30 21:43 51.00063 13.05026 38443 ft 466 kts 296°
2026-04-30 21:43 51.02298 12.95363 38439 ft 466 kts 296°
2026-04-30 21:44 51.04523 12.85699 38400 ft 466 kts 296°
2026-04-30 21:44 51.06738 12.76033 38433 ft 465 kts 296°
2026-04-30 21:45 51.08943 12.66368 38431 ft 464 kts 296°
2026-04-30 21:45 51.11139 12.56697 38428 ft 464 kts 296°
2026-04-30 21:46 51.13328 12.47012 38429 ft 464 kts 295°
2026-04-30 21:46 51.15494 12.37391 38429 ft 464 kts 295°
2026-04-30 21:47 51.17662 12.27707 38430 ft 464 kts 295°
2026-04-30 21:47 51.19819 12.18032 38433 ft 463 kts 295°
2026-04-30 21:48 51.21970 12.08337 38436 ft 463 kts 295°
2026-04-30 21:48 51.24114 11.98633 38436 ft 464 kts 295°
2026-04-30 21:49 51.26247 11.88928 38435 ft 463 kts 294°
2026-04-30 21:49 51.28369 11.79229 38433 ft 462 kts 294°
2026-04-30 21:50 51.30481 11.69534 38438 ft 462 kts 294°
2026-04-30 21:50 51.32585 11.59826 38438 ft 462 kts 294°
2026-04-30 21:51 51.34682 11.50107 38432 ft 462 kts 293°
2026-04-30 21:51 51.36770 11.40382 38435 ft 462 kts 293°
2026-04-30 21:52 51.38848 11.30656 38441 ft 462 kts 293°
2026-04-30 21:52 51.40917 11.20927 38441 ft 462 kts 293°
2026-04-30 21:53 51.42977 11.11194 38440 ft 462 kts 293°
2026-04-30 21:53 51.45018 11.01503 38437 ft 462 kts 292°
2026-04-30 21:54 51.47067 10.91729 38447 ft 462 kts 292°
2026-04-30 21:54 51.49107 10.81948 38446 ft 462 kts 292°
2026-04-30 21:55 51.51141 10.72149 38443 ft 463 kts 292°
2026-04-30 21:55 51.53166 10.62349 38441 ft 462 kts 292°
2026-04-30 21:56 51.55174 10.52574 38454 ft 456 kts 291°
2026-04-30 21:56 51.57137 10.42972 38452 ft 451 kts 291°
2026-04-30 21:57 51.59085 10.33404 38444 ft 450 kts 291°
2026-04-30 21:57 51.61022 10.23845 38446 ft 449 kts 291°
2026-04-30 21:58 51.62947 10.14296 38441 ft 448 kts 290°
2026-04-30 21:58 51.64860 10.04762 38439 ft 447 kts 290°
2026-04-30 21:59 51.66761 9.95234 38443 ft 447 kts 290°
2026-04-30 22:00 51.69598 9.80934 38438 ft 447 kts 290°
2026-04-30 22:00 51.72421 9.66605 38441 ft 447 kts 290°
2026-04-30 22:01 51.74292 9.57042 38438 ft 447 kts 290°
2026-04-30 22:01 51.76157 9.47469 38437 ft 447 kts 290°
2026-04-30 22:02 51.78013 9.37890 38438 ft 447 kts 290°
2026-04-30 22:02 51.79862 9.28300 38436 ft 447 kts 289°
2026-04-30 22:03 51.81702 9.18708 38433 ft 447 kts 289°
2026-04-30 22:03 51.83533 9.09112 38432 ft 447 kts 289°
2026-04-30 22:04 51.85358 8.99501 38426 ft 447 kts 289°
2026-04-30 22:05 51.88081 8.85073 38422 ft 447 kts 289°
2026-04-30 22:05 51.89886 8.75445 38415 ft 447 kts 289°
2026-04-30 22:06 51.91683 8.65810 38415 ft 447 kts 289°
2026-04-30 22:06 51.94351 8.51411 38415 ft 447 kts 289°
2026-04-30 22:07 51.96129 8.41753 38411 ft 447 kts 289°
2026-04-30 22:07 51.97899 8.32091 38405 ft 447 kts 288°
2026-04-30 22:08 51.99660 8.22421 38406 ft 447 kts 288°
2026-04-30 22:08 52.01413 8.12750 38409 ft 446 kts 288°
2026-04-30 22:09 52.03155 8.03082 38405 ft 446 kts 288°
2026-04-30 22:09 52.04890 7.93409 38154 ft 445 kts 288°
2026-04-30 22:10 52.05751 7.88586 37864 ft 444 kts 288°
2026-04-30 22:10 52.06608 7.83770 37415 ft 442 kts 288°
2026-04-30 22:10 52.07459 7.78979 36936 ft 440 kts 288°
2026-04-30 22:10 52.08294 7.74266 36446 ft 438 kts 288°
2026-04-30 22:11 52.09993 7.64645 35490 ft 452 kts 287°
2026-04-30 22:11 52.10864 7.59693 35027 ft 458 kts 287°
2026-04-30 22:11 52.11741 7.54687 34562 ft 460 kts 287°
2026-04-30 22:12 52.12616 7.49682 34060 ft 461 kts 287°
2026-04-30 22:12 52.13490 7.44663 33540 ft 462 kts 287°
2026-04-30 22:12 52.14365 7.39627 33001 ft 462 kts 287°
2026-04-30 22:12 52.15235 7.34606 32477 ft 459 kts 287°
2026-04-30 22:13 52.16095 7.29624 31960 ft 456 kts 287°
2026-04-30 22:13 52.16953 7.24646 31463 ft 457 kts 287°
2026-04-30 22:13 52.17810 7.19658 30970 ft 459 kts 287°
2026-04-30 22:13 52.18671 7.14636 30476 ft 460 kts 287°
2026-04-30 22:14 52.19633 7.09673 29795 ft 459 kts 290°
2026-04-30 22:14 52.20659 7.04772 29048 ft 456 kts 290°
2026-04-30 22:14 52.21696 6.99887 28212 ft 455 kts 290°
2026-04-30 22:14 52.22730 6.95031 27451 ft 453 kts 290°
2026-04-30 22:15 52.23753 6.90214 26764 ft 449 kts 289°
2026-04-30 22:15 52.24778 6.85385 26003 ft 448 kts 289°
2026-04-30 22:15 52.25792 6.80591 25372 ft 445 kts 289°
2026-04-30 22:15 52.26790 6.75860 24815 ft 439 kts 289°
2026-04-30 22:16 52.27782 6.71151 24195 ft 437 kts 289°
2026-04-30 22:16 52.28762 6.66481 23548 ft 433 kts 288°
2026-04-30 22:17 52.31653 6.52654 21400 ft 425 kts 289°
2026-04-30 22:17 52.32604 6.48083 20731 ft 423 kts 289°
2026-04-30 22:17 52.34482 6.39030 19660 ft 420 kts 288°
2026-04-30 22:18 52.35417 6.34508 19102 ft 419 kts 288°
2026-04-30 22:18 52.37270 6.25515 17982 ft 414 kts 288°
2026-04-30 22:19 52.39087 6.16655 16921 ft 408 kts 288°
2026-04-30 22:19 52.39985 6.12265 16387 ft 405 kts 288°
2026-04-30 22:19 52.41758 6.03562 15329 ft 400 kts 287°
2026-04-30 22:20 52.42633 5.99254 14814 ft 397 kts 287°
2026-04-30 22:20 52.44360 5.90721 13730 ft 391 kts 287°
2026-04-30 22:20 52.45210 5.86507 13207 ft 388 kts 287°
2026-04-30 22:21 52.46052 5.82319 12699 ft 385 kts 287°
2026-04-30 22:21 52.46886 5.78169 12230 ft 380 kts 287°
2026-04-30 22:21 52.47695 5.74138 11991 ft 365 kts 287°
2026-04-30 22:21 52.48476 5.70235 11630 ft 356 kts 287°
2026-04-30 22:22 52.48982 5.67704 11413 ft 349 kts 287°
2026-04-30 22:22 52.49723 5.63987 11209 ft 336 kts 287°
2026-04-30 22:22 52.50627 5.59271 10929 ft 319 kts 281°
2026-04-30 22:22 52.50764 5.55701 10492 ft 312 kts 259°
2026-04-30 22:23 52.50342 5.52246 10141 ft 304 kts 251°
2026-04-30 22:23 52.49928 5.50021 10008 ft 301 kts 248°
2026-04-30 22:23 52.49213 5.46804 9901 ft 300 kts 245°
2026-04-30 22:23 52.48451 5.43620 9779 ft 299 kts 244°
2026-04-30 22:24 52.47690 5.40458 9653 ft 298 kts 245°
2026-04-30 22:24 52.46945 5.37281 9550 ft 298 kts 245°
2026-04-30 22:24 52.46220 5.34102 9435 ft 298 kts 246°
2026-04-30 22:24 52.45511 5.30910 9316 ft 298 kts 246°
2026-04-30 22:25 52.44814 5.27723 9214 ft 297 kts 246°
2026-04-30 22:25 52.44122 5.24537 9004 ft 296 kts 246°
2026-04-30 22:25 52.43433 5.21359 8843 ft 296 kts 246°
2026-04-30 22:25 52.42744 5.18189 8727 ft 295 kts 246°
2026-04-30 22:26 52.41365 5.11867 8493 ft 294 kts 246°
2026-04-30 22:26 52.40674 5.08709 8396 ft 294 kts 246°
2026-04-30 22:26 52.39982 5.05558 8296 ft 294 kts 246°
2026-04-30 22:27 52.39290 5.02409 8183 ft 294 kts 246°
2026-04-30 22:27 52.38599 4.99272 8055 ft 293 kts 246°
2026-04-30 22:27 52.37226 4.93047 7824 ft 292 kts 246°
2026-04-30 22:28 52.35847 4.86819 7578 ft 291 kts 245°
2026-04-30 22:28 52.35166 4.83751 7445 ft 287 kts 246°
2026-04-30 22:29 52.33536 4.75052 7259 ft 263 kts 265°
2026-04-30 22:29 52.33614 4.72043 6880 ft 266 kts 273°
2026-04-30 22:30 52.33522 4.60505 5623 ft 249 kts 240°
2026-04-30 22:31 52.30923 4.53354 4769 ft 240 kts 230°
2026-04-30 22:32 52.28161 4.46595 3932 ft 236 kts 227°
2026-04-30 22:32 52.25603 4.43864 3125 ft 216 kts 181°
2026-04-30 22:33 52.21881 4.46586 2390 ft 197 kts 125°
2026-04-30 22:33 52.20898 4.50644 2015 ft 188 kts 99°
2026-04-30 22:34 52.22099 4.56045 2006 ft 155 kts 69°
2026-04-30 22:35 52.23232 4.58976 1995 ft 154 kts 69°
2026-04-30 22:36 52.25473 4.64802 1308 ft 145 kts 68°
2026-04-30 22:36 52.25987 4.66128 1099 ft 133 kts 68°
2026-04-30 22:37 52.27439 4.69908 578 ft 131 kts 63°
2026-04-30 22:37 52.27922 4.71147 374 ft 129 kts 63°
2026-04-30 22:37 52.28864 4.73622 72 ft 128 kts 62°
2026-04-30 22:38 52.29653 4.75661 2 ft 62 kts 57°
2026-04-30 22:38 52.29955 4.76436 0 ft 34 kts 50°
2026-04-30 22:39 52.30136 4.76633 2 ft 21 kts 26°
2026-04-30 22:39 52.30361 4.76950 2 ft 13 kts 57°
2026-04-30 22:40 52.30508 4.77335 2 ft 15 kts 58°
2026-04-30 22:41 52.30721 4.77593 2 ft 5 kts
2026-04-30 22:41 52.30829 4.77538 2 ft 13 kts 288°
2026-04-30 22:42 52.30864 4.77306 2 ft 4 kts 335°
2026-04-30 22:43 52.30892 4.77303 2 ft 1 kts
2026-04-30 22:43 52.30897 4.77303 2 ft 0 kts